N9RIM-2 Weather Reports


Display with metric or nautical units.
time (UTC)temp
F
wind
direction
speed
MPH
gust
MPH
rain 1hr
in
rain 24hr
in
rain mn
in
humidity
%
barometer
mb
20210126021118 27 112 3.0 4.0 0.00 0.00 0.00 7 1013.6
20210126020116 27 96 2.0 6.0 0.00 0.00 0.00 7 1013.7
20210126015124 27 95 1.0 5.0 0.00 0.00 0.00 7 1014.0
20210126014118 27 115 1.0 3.0 0.00 0.00 0.00 7 1014.1
20210126013120 27 121 0.0 3.0 0.00 0.00 0.00 7 1014.2
20210126012117 27 0 0.0 0.0 0.00 0.00 0.00 7 1014.2
20210126011117 27 0 0.0 0.0 0.00 0.00 0.00 7 1014.0
20210126010119 27 0 0.0 0.0 0.00 0.00 0.00 7 1013.9
20210126005117 28 0 0.0 0.0 0.00 0.00 0.00 7 1013.7
20210126004116 28 0 0.0 0.0 0.00 0.00 0.00 7 1014.1
20210126003117 28 0 0.0 0.0 0.00 0.00 0.00 6 1014.1
20210126002117 28 0 0.0 0.0 0.00 0.00 0.00 6 1014.2
20210126001120 28 0 0.0 1.0 0.00 0.00 0.00 6 1014.0
20210126000117 28 0 0.0 2.0 0.00 0.00 0.00 6 1014.0
20210125235122 28 0 0.0 0.0 0.00 0.00 0.00 6 1014.1
20210125234121 28 0 0.0 0.0 0.00 0.00 0.00 6 1014.1
20210125233119 28 0 0.0 2.0 0.00 0.00 0.00 6 1014.1
20210125232117 28 0 0.0 0.0 0.00 0.00 0.00 6 1014.1
20210125231127 28 111 1.0 2.0 0.00 0.00 0.00 6 1014.0
20210125230120 29 114 1.0 3.0 0.00 0.00 0.00 6 1014.1
20210125225117 29 117 0.0 3.0 0.00 0.00 0.00 6 1014.3
20210125224121 29 0 0.0 0.0 0.00 0.00 0.00 6 1014.1
20210125223123 29 0 0.0 0.0 0.00 0.00 0.00 6 1014.1
20210125222118 29 0 0.0 4.0 0.00 0.00 0.00 6 1014.1
20210125221119 29 0 0.0 0.0 0.00 0.00 0.00 6 1014.1
20210125220116 30 0 0.0 0.0 0.00 0.00 0.00 6 1014.0
20210125215117 30 0 0.0 0.0 0.00 0.00 0.00 6 1013.8
20210125214117 30 120 1.0 2.0 0.00 0.00 0.00 6 1013.6
20210125213120 30 119 2.0 3.0 0.00 0.00 0.00 6 1013.5
20210125212120 30 117 2.0 4.0 0.00 0.00 0.00 6 1013.5
20210125211117 30 117 2.0 4.0 0.00 0.00 0.00 6 1013.7
20210125210117 30 112 2.0 4.0 0.00 0.00 0.00 6 1013.7
20210125205117 30 112 2.0 4.0 0.00 0.00 0.00 6 1013.7
20210125204122 31 114 2.0 5.0 0.00 0.00 0.00 6 1014.0
20210125203119 31 111 2.0 4.0 0.00 0.00 0.00 6 1014.0
20210125202118 31 109 3.0 4.0 0.00 0.00 0.00 6 1014.1
20210125201117 31 120 2.0 6.0 0.00 0.00 0.00 6 1014.2
20210125200117 31 124 2.0 5.0 0.00 0.00 0.00 6 1014.2
20210125195117 31 119 3.0 5.0 0.00 0.00 0.00 6 1014.1
20210125194117 30 115 3.0 4.0 0.00 0.00 0.00 6 1014.1
20210125193117 31 110 2.0 6.0 0.00 0.00 0.00 6 1014.1
20210125192121 31 106 1.0 5.0 0.00 0.00 0.00 6 1014.3
20210125191119 31 111 0.0 6.0 0.00 0.00 0.00 6 1014.5
20210125190116 31 102 1.0 1.0 0.00 0.00 0.00 6 1014.4
20210125185117 30 97 0.0 3.0 0.00 0.00 0.00 6 1014.3
20210125184120 29 98 1.0 4.0 0.00 0.00 0.00 6 1014.3
20210125183118 29 115 2.0 3.0 0.00 0.00 0.00 6 1014.3
20210125182120 28 123 2.0 3.0 0.00 0.00 0.00 6 1014.2
20210125181117 28 122 2.0 4.0 0.00 0.00 0.00 6 1014.3
20210125180120 28 122 1.0 4.0 0.00 0.00 0.00 6 1014.4
20210125175121 28 142 1.0 4.0 0.00 0.00 0.00 6 1014.6
20210125174121 28 184 2.0 4.0 0.00 0.00 0.00 6 1015.0
20210125173130 27 186 2.0 4.0 0.00 0.00 0.00 7 1015.1
20210125172154 27 195 2.0 4.0 0.00 0.00 0.00 7 1015.5
20210125171119 26 215 3.0 5.0 0.00 0.00 0.00 7 1015.6
20210125170117 25 199 3.0 5.0 0.00 0.00 0.00 7 1015.7
20210125165120 25 199 3.0 6.0 0.00 0.00 0.00 7 1015.7
20210125164130 25 214 3.0 6.0 0.00 0.00 0.00 7 1015.6
20210125163124 24 192 3.0 6.0 0.00 0.00 0.00 7 1015.6
20210125162123 24 180 2.0 6.0 0.00 0.00 0.00 7 1015.6
20210125161117 23 141 2.0 5.0 0.00 0.00 0.00 7 1015.8
20210125160118 22 119 2.0 4.0 0.00 0.00 0.00 7 1015.9
20210125155119 22 121 2.0 4.0 0.00 0.00 0.00 7 1016.0
20210125154118 21 115 2.0 4.0 0.00 0.00 0.00 7 1016.1
20210125153117 21 113 2.0 4.0 0.00 0.00 0.00 7 1016.0
20210125152123 20 117 2.0 4.0 0.00 0.00 0.00 7 1015.8
20210125151119 19 117 2.0 4.0 0.00 0.00 0.00 8 1015.7
20210125150120 19 117 2.0 5.0 0.00 0.00 0.00 8 1015.8
20210125145118 18 116 0.0 4.0 0.00 0.00 0.00 8 1016.0
20210125144118 18 0 0.0 0.0 0.00 0.00 0.00 8 1016.1
20210125143121 18 0 0.0 0.0 0.00 0.00 0.00 8 1016.1
20210125142119 16 131 1.0 2.0 0.00 0.00 0.00 8 1016.1
20210125141117 15 129 2.0 4.0 0.00 0.00 0.00 8 1016.2
20210125140119 15 128 1.0 3.0 0.00 0.00 0.00 8 1016.2
20210125135117 14 0 0.0 3.0 0.00 0.00 0.00 8 1016.2
20210125134118 13 0 0.0 0.0 0.00 0.00 0.00 9 1016.7
20210125133121 12 0 0.0 0.0 0.00 0.00 0.00 8 1016.6
20210125132130 12 0 0.0 0.0 0.00 0.00 0.00 9 1016.6
20210125131120 12 0 0.0 0.0 0.00 0.00 0.00 9 1016.3
20210125130120 11 0 0.0 0.0 0.00 0.00 0.00 9 1016.2
20210125125117 11 0 0.0 0.0 0.00 0.00 0.00 9 1015.7
20210125124131 11 0 0.0 1.0 0.00 0.00 0.00 9 1016.2
20210125123126 11 316 1.0 2.0 0.00 0.00 0.00 9 1016.3
20210125122141 11 310 1.0 3.0 0.00 0.00 0.00 9 1016.3
20210125121118 11 304 0.0 3.0 0.00 0.00 0.00 9 1016.5
20210125120121 11 0 0.0 4.0 0.00 0.00 0.00 9 1016.5
20210125115118 11 0 0.0 0.0 0.00 0.00 0.00 9 1016.7
20210125114118 11 0 0.0 0.0 0.00 0.00 0.00 9 1016.3
20210125113121 11 0 0.0 0.0 0.00 0.00 0.00 9 1016.4
20210125112118 11 0 0.0 0.0 0.00 0.00 0.00 9 1016.5
20210125111120 12 0 0.0 0.0 0.00 0.00 0.00 9 1016.2
20210125110117 12 0 0.0 0.0 0.00 0.00 0.00 9 1016.1
20210125105121 12 0 0.0 0.0 0.00 0.00 0.00 9 1016.1
20210125104121 12 0 0.0 0.0 0.00 0.00 0.00 8 1016.2
20210125103119 12 0 0.0 0.0 0.00 0.00 0.00 8 1016.1
20210125102120 13 0 0.0 0.0 0.00 0.00 0.00 8 1015.8
20210125101117 13 0 0.0 0.0 0.00 0.00 0.00 8 1016.0
20210125100143 13 0 0.0 0.0 0.00 0.00 0.00 8 1015.9
20210125095125 14 0 0.0 0.0 0.00 0.00 0.00 8 1015.7
20210125094119 14 0 0.0 0.0 0.00 0.00 0.00 8 1015.7
20210125093118 14 346 0.0 1.0 0.00 0.00 0.00 8 1015.7
20210125092120 14 347 0.0 2.0 0.00 0.00 0.00 8 1015.6
20210125091117 14 0 0.0 1.0 0.00 0.00 0.00 8 1015.8
20210125090122 14 0 0.0 3.0 0.00 0.00 0.00 8 1015.9
20210125085118 14 0 0.0 0.0 0.00 0.00 0.00 8 1016.1
20210125084119 14 0 0.0 0.0 0.00 0.00 0.00 8 1016.1
20210125083120 14 0 0.0 0.0 0.00 0.00 0.00 8 1016.1
20210125082119 14 0 0.0 0.0 0.00 0.00 0.00 8 1016.1
20210125081118 14 0 0.0 0.0 0.00 0.00 0.00 8 1016.0
20210125080121 14 0 0.0 0.0 0.00 0.00 0.00 8 1016.0
20210125075122 14 0 0.0 0.0 0.00 0.00 0.00 8 1016.1
20210125074118 14 0 0.0 0.0 0.00 0.00 0.00 8 1016.0
20210125073117 14 0 0.0 0.0 0.00 0.00 0.00 8 1016.0
20210125072117 15 0 0.0 0.0 0.00 0.00 0.00 8 1016.1
20210125071121 15 0 0.0 0.0 0.00 0.00 0.00 8 1015.8
20210125070116 15 0 0.0 0.0 0.00 0.00 0.00 8 1015.8
20210125065128 15 0 0.0 0.0 0.00 0.00 0.00 8 1015.6
20210125064116 15 0 0.0 0.0 0.00 0.00 0.00 8 1015.7
20210125063117 15 0 0.0 0.0 0.00 0.00 0.00 8 1015.8
20210125062119 15 0 0.0 0.0 0.00 0.00 0.00 8 1015.8
20210125061126 15 0 0.0 0.0 0.00 0.00 0.00 8 1016.0
20210125060122 15 0 0.0 0.0 0.00 0.00 0.00 8 1016.0
20210125055119 15 0 0.0 0.0 0.00 0.00 0.00 8 1016.0
20210125054116 15 309 0.0 1.0 0.00 0.00 0.00 8 1016.2
20210125053121 15 309 0.0 1.0 0.00 0.00 0.00 8 1016.3
20210125052944 15 0 0.0 3.0 0.00 0.00 0.00 8 1016.3
20210125051945 15 333 2.0 2.0 0.00 0.00 0.00 8 1016.3
20210125050943 16 329 1.0 3.0 0.00 0.00 0.00 8 1016.2
20210125045950 16 0 0.0 2.0 0.00 0.00 0.00 8 1016.3
20210125044947 17 0 0.0 0.0 0.00 0.00 0.00 8 1016.4
20210125043944 17 0 0.0 0.0 0.00 0.00 0.00 8 1016.5
20210125042946 17 0 0.0 0.0 0.00 0.00 0.00 8 1016.5
20210125041944 18 0 0.0 0.0 0.00 0.00 0.00 8 1016.5
20210125040948 18 0 0.0 0.0 0.00 0.00 0.00 8 1016.5
20210125035947 18 0 0.0 0.0 0.00 0.00 0.00 8 1016.7
20210125034943 18 0 0.0 0.0 0.00 0.00 0.00 8 1016.7
20210125033943 18 0 0.0 0.0 0.00 0.00 0.00 8 1016.7
20210125032943 18 0 0.0 0.0 0.00 0.00 0.00 8 1016.7
20210125031945 18 0 0.0 0.0 0.00 0.00 0.00 8 1016.7
20210125030948 18 0 0.0 0.0 0.00 0.00 0.00 8 1016.7
20210125025947 18 0 0.0 0.0 0.00 0.00 0.00 8 1017.1
20210125024944 18 0 0.0 0.0 0.00 0.00 0.00 8 1017.0
20210125023944 18 0 0.0 0.0 0.00 0.00 0.00 8 1017.0
20210125022943 18 0 0.0 0.0 0.00 0.00 0.00 8 1017.1